Погода в Новорудном

Россия / Оренбургская область     51°30′09″N   58°11′00″E
темп.,
°C
ветер,
м/с
пор.,
м/с
влажн.,
%
обл.,
%
осадки,
мм/ч
давл.,
гПа
погр.,
м
15 апреля, чт
чт1523:00+7в36780 0.0 103096
02:00+6вюв22770 0.0 102910
05:00+5св22770 0.0 102910
08:00+6всв22720 0.0 102862
11:00+12в34530 0.0 1027364
14:00+16вюв45400 0.0 1025701
17:00+17вюв34330 0.0 1023970
20:00+12всв44571 0.0 102239
16 апреля, пт
пт1623:00+10в226245 0.0 102211
02:00+8в116248 0.0 102110
05:00+7св226452 0.0 102110
08:00+8св226654 0.0 102134
11:00+13в234869 0.0 1020393
14:00+16в3338100 0.0 1020892
17:00+17всв223448 0.0 10191195
20:00+13св335159 0.0 101924
17 апреля, сб
сб1723:00+10св335845 0.0 102031
02:00+8св4878100 0.0 1021122
05:00+7св599884 0.0 1022219
08:00+7всв6893100 0.0 1023351
11:00+9в678369 0.0 1023520
14:00+14в55615 0.0 1022930
17:00+15в44555 0.0 10211122
20:00+12св45705 0.0 102181
18 апреля, вс
вс1823:00+8св48870 0.0 1021145
02:00+7св35890 0.0 102176
05:00+6ссв22880 0.0 102013
08:00+8с23820 0.0 1020103
11:00+13ссз22614 0.0 1019536
14:00+16ссз34382 0.0 10171648
17:00+17сз45355 0.0 10162145
20:00+13ссз3453100 0.0 101751
19 апреля, пн
пн1923:00+10св81364100 0.0 1018560
02:00+4всв91471100 0.0 1022675
05:00+1всв91466100 0.0 1024678
08:000всв10146199 0.0 1026792
11:00−1всв101551100 0.0 1026854
14:00+1всв91242100 0.0 10261126
17:00+1всв91247100 0.4 10261233
20:000всв91350100 1.1 10271236